TimeCST,TemperatureF,Dew PointF,Humidity,Sea Level PressureIn,VisibilityMPH,Wind Direction,Wind SpeedMPH,Gust SpeedMPH,PrecipitationIn,Events,Conditions,WindDirDegrees,DateUTC
12:15 AM,32.9,29.3,87,29.99,7.0,SSE,9.2,-,N/A,,Mostly Cloudy,150,2012-02-15 06:15:00
12:35 AM,33.3,29.8,87,29.98,7.0,SE,8.1,-,N/A,,Overcast,140,2012-02-15 06:35:00
12:55 AM,33.8,30.2,87,29.98,7.0,SSE,9.2,-,N/A,,Overcast,150,2012-02-15 06:55:00
1:15 AM,33.3,29.7,87,29.99,7.0,SSE,8.1,-,N/A,,Scattered Clouds,150,2012-02-15 07:15:00
1:35 AM,33.3,29.8,87,29.99,7.0,SE,5.8,-,N/A,,Scattered Clouds,140,2012-02-15 07:35:00
1:55 AM,33.3,29.8,87,29.99,7.0,SSE,6.9,-,N/A,,Mostly Cloudy,150,2012-02-15 07:55:00
2:15 AM,33.4,29.8,87,29.99,7.0,SSE,8.1,-,N/A,,Mostly Cloudy,150,2012-02-15 08:15:00
2:35 AM,33.8,28.4,81,29.99,7.0,SSE,9.2,-,N/A,,Scattered Clouds,150,2012-02-15 08:35:00
2:55 AM,32.0,28.4,87,29.99,7.0,SE,5.8,-,N/A,,Mostly Cloudy,140,2012-02-15 08:55:00
3:15 AM,32.4,29.3,88,29.99,7.0,SE,4.6,-,N/A,,Mostly Cloudy,140,2012-02-15 09:15:00
3:35 AM,32.5,29.3,88,29.99,7.0,SE,4.6,-,N/A,,Scattered Clouds,130,2012-02-15 09:35:00
3:55 AM,33.3,29.8,87,29.99,7.0,ESE,5.8,-,N/A,,Mostly Cloudy,120,2012-02-15 09:55:00
4:15 AM,34.2,30.4,86,29.99,10.0,ESE,4.6,-,N/A,,Overcast,110,2012-02-15 10:15:00
4:35 AM,34.3,30.2,85,29.99,7.0,ESE,5.8,-,N/A,,Mostly Cloudy,110,2012-02-15 10:35:00
4:55 AM,33.8,30.2,87,29.99,7.0,ESE,5.8,-,N/A,,Mostly Cloudy,110,2012-02-15 10:55:00
5:15 AM,33.4,29.8,87,29.99,7.0,ESE,6.9,-,N/A,,Overcast,120,2012-02-15 11:15:00
5:35 AM,33.3,30.0,88,29.99,5.0,ESE,4.6,-,N/A,,Overcast,110,2012-02-15 11:35:00
5:55 AM,33.8,30.2,87,29.99,7.0,ESE,6.9,-,N/A,,Overcast,120,2012-02-15 11:55:00
6:15 AM,34.7,30.9,86,30.00,7.0,SE,4.6,-,N/A,,Overcast,140,2012-02-15 12:15:00
6:35 AM,34.7,30.7,85,29.99,7.0,ESE,4.6,-,N/A,,Overcast,120,2012-02-15 12:35:00
6:55 AM,34.7,30.9,86,29.99,7.0,SE,8.1,-,N/A,,Overcast,130,2012-02-15 12:55:00
7:15 AM,35.1,31.1,85,29.99,5.0,SE,4.6,-,N/A,,Overcast,130,2012-02-15 13:15:00
7:35 AM,35.6,31.5,85,29.99,5.0,SE,6.9,-,N/A,,Haze,140,2012-02-15 13:35:00
7:55 AM,35.6,31.5,85,29.99,5.0,ESE,8.1,-,N/A,,Haze,120,2012-02-15 13:55:00
8:15 AM,35.6,32.0,87,30.00,7.0,SE,5.8,-,N/A,,Scattered Clouds,130,2012-02-15 14:15:00
8:35 AM,36.7,32.0,83,29.99,7.0,ESE,6.9,-,N/A,,Clear,120,2012-02-15 14:35:00
8:55 AM,37.0,32.0,82,30.00,7.0,ESE,4.6,-,N/A,,Mostly Cloudy,120,2012-02-15 14:55:00
9:15 AM,38.3,32.7,80,30.00,7.0,SE,8.1,-,N/A,,Overcast,130,2012-02-15 15:15:00
9:35 AM,38.3,33.1,81,30.00,7.0,SE,4.6,-,N/A,,Overcast,130,2012-02-15 15:35:00
9:55 AM,39.2,33.8,81,30.01,7.0,SSE,9.2,-,N/A,,Overcast,150,2012-02-15 15:55:00
10:15 AM,40.3,34.5,80,30.01,7.0,SSE,6.9,-,N/A,,Overcast,150,2012-02-15 16:15:00
10:35 AM,41.0,33.8,76,30.00,7.0,SSE,8.1,-,N/A,,Overcast,150,2012-02-15 16:35:00
10:55 AM,41.9,34.9,76,30.00,7.0,SSE,9.2,-,N/A,,Overcast,150,2012-02-15 16:55:00
11:15 AM,42.1,34.9,76,29.98,10.0,SE,9.2,-,N/A,,Overcast,140,2012-02-15 17:15:00
11:35 AM,42.8,35.2,75,29.99,10.0,SSE,8.1,-,N/A,,Overcast,150,2012-02-15 17:35:00
11:55 AM,43.2,35.4,74,29.98,10.0,SSE,10.4,-,N/A,,Overcast,150,2012-02-15 17:55:00
12:15 PM,43.9,35.6,73,29.98,10.0,SSE,10.4,-,N/A,,Overcast,160,2012-02-15 18:15:00
12:35 PM,44.2,35.6,72,29.97,10.0,SSE,6.9,-,N/A,,Overcast,150,2012-02-15 18:35:00
12:55 PM,44.6,35.6,71,29.97,10.0,SSE,8.1,-,N/A,,Overcast,160,2012-02-15 18:55:00
1:15 PM,44.8,36.0,71,29.97,10.0,SSE,9.2,-,N/A,,Overcast,160,2012-02-15 19:15:00
1:35 PM,44.8,36.1,72,29.97,10.0,SSE,6.9,-,N/A,,Overcast,160,2012-02-15 19:35:00
1:55 PM,44.6,36.1,72,29.95,10.0,SSE,8.1,-,N/A,,Light Drizzle,150,2012-02-15 19:55:00
2:15 PM,43.7,36.7,76,29.95,7.0,SSE,6.9,-,N/A,Rain,Rain,160,2012-02-15 20:15:00
2:35 PM,42.8,37.4,81,29.93,4.0,ESE,6.9,-,N/A,Rain,Light Rain,120,2012-02-15 20:35:00
2:55 PM,42.8,37.4,81,29.91,4.0,East,4.6,-,N/A,Rain,Light Rain,100,2012-02-15 20:55:00
3:15 PM,43.5,38.3,82,29.91,5.0,Calm,Calm,-,N/A,,Drizzle,0,2012-02-15 21:15:00
3:35 PM,43.7,38.1,81,29.93,5.0,West,3.5,-,N/A,Rain,Rain,270,2012-02-15 21:35:00
3:55 PM,42.8,37.9,83,29.93,5.0,Calm,Calm,-,N/A,,Haze,0,2012-02-15 21:55:00
4:15 PM,42.8,38.3,84,29.93,2.5,Calm,Calm,-,N/A,,Light Drizzle,0,2012-02-15 22:15:00
4:35 PM,42.4,38.3,85,29.93,2.5,Calm,Calm,-,N/A,,Drizzle,0,2012-02-15 22:35:00
4:55 PM,41.9,38.1,86,29.94,2.0,Calm,Calm,-,N/A,,Drizzle,0,2012-02-15 22:55:00
5:15 PM,41.7,38.1,87,29.95,1.0,Calm,Calm,-,N/A,,Light Drizzle,0,2012-02-15 23:15:00
5:35 PM,41.2,37.8,88,29.95,1.5,Calm,Calm,-,N/A,,Drizzle,0,2012-02-15 23:35:00
5:55 PM,40.1,36.5,87,29.95,0.2,Calm,Calm,-,N/A,Rain,Light Rain,0,2012-02-15 23:55:00
6:15 PM,40.5,37.4,89,29.95,0.5,Calm,Calm,-,N/A,,Drizzle,0,2012-02-16 00:15:00
6:35 PM,41.0,37.8,88,29.94,1.5,ENE,3.5,-,N/A,,Drizzle,70,2012-02-16 00:35:00
6:55 PM,41.2,38.3,89,29.94,2.0,Calm,Calm,-,N/A,Rain,Rain,0,2012-02-16 00:55:00
7:15 PM,41.0,37.9,89,29.94,2.0,Calm,Calm,-,N/A,,Light Drizzle,0,2012-02-16 01:15:00
7:35 PM,40.5,37.4,89,29.95,1.2,Calm,Calm,-,N/A,,Overcast,0,2012-02-16 01:35:00
7:55 PM,40.5,37.4,89,29.95,0.5,Calm,Calm,-,N/A,Fog,Fog,0,2012-02-16 01:55:00
8:15 PM,40.1,37.0,89,29.95,0.2,Calm,Calm,-,N/A,,Light Drizzle,0,2012-02-16 02:15:00
8:35 PM,40.1,37.0,89,29.96,0.5,Calm,Calm,-,N/A,Rain,Rain,0,2012-02-16 02:35:00
8:55 PM,40.1,37.2,89,29.95,0.2,Calm,Calm,-,N/A,Rain,Light Rain,0,2012-02-16 02:55:00
9:15 PM,40.1,37.4,90,29.95,0.2,Calm,Calm,-,N/A,Rain,Light Rain,0,2012-02-16 03:15:00
9:35 PM,40.3,37.6,90,29.96,0.2,East,3.5,-,N/A,,Drizzle,90,2012-02-16 03:35:00
9:55 PM,40.6,37.9,90,29.95,0.5,SE,3.5,-,N/A,Rain,Light Rain,130,2012-02-16 03:55:00
10:15 PM,41.0,38.3,90,29.94,1.0,SE,4.6,-,N/A,Rain,Rain,130,2012-02-16 04:15:00
10:35 PM,40.5,37.8,90,29.96,1.2,Calm,Calm,-,N/A,Rain,Rain,0,2012-02-16 04:35:00
10:55 PM,40.5,37.9,91,29.96,1.5,Calm,Calm,-,N/A,Rain,Light Rain,0,2012-02-16 04:55:00
11:15 PM,40.3,37.8,91,29.97,1.5,West,5.8,-,N/A,Rain,Rain,280,2012-02-16 05:15:00
11:35 PM,40.1,37.4,90,29.96,1.5,WNW,4.6,-,N/A,,Light Drizzle,300,2012-02-16 05:35:00
11:55 PM,40.1,37.4,90,29.97,1.5,WNW,5.8,-,N/A,,Overcast,290,2012-02-16 05:55:00